Hourly Weather Lukashi

Today, 7 May, Friday

Time Temperature Precipitation Wind Pressure Humidity
00:00 +7°C° 0 mm 2 mps 749 mmHg 95%
01:00 +6°C° 0 mm 2 mps 750 mmHg 95%
02:00 +6°C° 0 mm 2 mps 749 mmHg 95%
03:00 +6°C° 0 mm 2 mps 750 mmHg 92%
04:00 +6°C° 0 mm 2 mps 750 mmHg 89%
05:00 +7°C° 0 mm 1 mps 750 mmHg 86%
06:00 +9°C° 0 mm 1 mps 750 mmHg 78%
07:00 +11°C° 0 mm 1 mps 750 mmHg 69%
08:00 +13°C° 0 mm 1 mps 751 mmHg 61%
09:00 +14°C° 0 mm 2 mps 751 mmHg 55%
10:00 +16°C° 0 mm 2 mps 751 mmHg 48%
11:00 +17°C° 0 mm 3 mps 751 mmHg 42%
12:00 +17°C° 0 mm 3 mps 750 mmHg 43%
13:00 +17°C° 0 mm 4 mps 750 mmHg 43%
14:00 +18°C° 0 mm 4 mps 750 mmHg 44%
15:00 +18°C° 0 mm 4 mps 749 mmHg 47%
16:00 +17°C° 0 mm 5 mps 749 mmHg 51%
17:00 +17°C° 0 mm 5 mps 748 mmHg 54%
18:00 +16°C° 0 mm 5 mps 748 mmHg 55%
19:00 +15°C° 0 mm 6 mps 748 mmHg 55%
20:00 +15°C° 0 mm 6 mps 748 mmHg 56%
21:00 +15°C° 0 mm 7 mps 747 mmHg 57%
22:00 +15°C° 0 mm 7 mps 747 mmHg 58%
23:00 +15°C° 0 mm 7 mps 746 mmHg 59%

Tomorrow, 8 May, Saturday

Time Temperature Precipitation Wind Pressure Humidity
00:00 +14°C° 0.1 mm 7 mps 746 mmHg 64%
01:00 +14°C° 0.1 mm 7 mps 745 mmHg 69%
02:00 +12°C° 0.1 mm 7 mps 745 mmHg 74%
03:00 +12°C° 0 mm 7 mps 745 mmHg 75%
04:00 +12°C° 0 mm 8 mps 744 mmHg 76%
05:00 +12°C° 0 mm 8 mps 744 mmHg 77%
06:00 +12°C° 0.7 mm 7 mps 744 mmHg 83%
07:00 +11°C° 0.7 mm 7 mps 744 mmHg 88%
08:00 +11°C° 0.7 mm 6 mps 744 mmHg 93%
09:00 +11°C° 0.4 mm 6 mps 745 mmHg 91%
10:00 +10°C° 0.4 mm 6 mps 746 mmHg 89%
11:00 +10°C° 0.4 mm 6 mps 747 mmHg 87%
12:00 +10°C° 0 mm 7 mps 747 mmHg 82%
13:00 +10°C° 0 mm 7 mps 748 mmHg 77%
14:00 +10°C° 0 mm 8 mps 748 mmHg 72%
15:00 +10°C° 0 mm 7 mps 748 mmHg 68%
16:00 +10°C° 0 mm 7 mps 748 mmHg 63%
17:00 +10°C° 0 mm 7 mps 749 mmHg 59%
18:00 +9°C° 0 mm 7 mps 749 mmHg 63%
19:00 +6°C° 0 mm 7 mps 750 mmHg 66%
20:00 +5°C° 0 mm 6 mps 751 mmHg 70%
21:00 +4°C° 0 mm 6 mps 751 mmHg 75%
22:00 +3°C° 0 mm 5 mps 752 mmHg 81%
23:00 +4°C° 0 mm 4 mps 752 mmHg 87%

Day after tomorrow, 9 May, Sunday

Time Temperature Precipitation Wind Pressure Humidity
00:00 +3°C° 0 mm 4 mps 752 mmHg 87%
01:00 +2°C° 0 mm 5 mps 753 mmHg 87%
02:00 +2°C° 0 mm 5 mps 753 mmHg 88%
03:00 +2°C° 0 mm 5 mps 753 mmHg 86%
04:00 +3°C° 0 mm 4 mps 754 mmHg 85%
05:00 +1°C° 0 mm 4 mps 755 mmHg 84%
06:00 +4°C° 0 mm 4 mps 755 mmHg 76%
07:00 +6°C° 0 mm 5 mps 756 mmHg 69%
08:00 +8°C° 0 mm 6 mps 756 mmHg 61%
09:00 +9°C° 0 mm 6 mps 756 mmHg 58%
10:00 +10°C° 0 mm 7 mps 756 mmHg 55%
11:00 +11°C° 0 mm 7 mps 756 mmHg 52%
12:00 +12°C° 0.1 mm 7 mps 757 mmHg 50%
13:00 +12°C° 0.1 mm 7 mps 757 mmHg 49%
14:00 +12°C° 0.1 mm 7 mps 757 mmHg 47%
15:00 +13°C° 0 mm 6 mps 757 mmHg 49%
16:00 +13°C° 0 mm 5 mps 758 mmHg 51%
17:00 +12°C° 0 mm 5 mps 758 mmHg 53%
18:00 +11°C° 0 mm 4 mps 758 mmHg 58%
19:00 +9°C° 0 mm 3 mps 759 mmHg 62%
20:00 +7°C° 0 mm 3 mps 759 mmHg 67%
21:00 +7°C° 0 mm 3 mps 760 mmHg 68%
22:00 +5°C° 0 mm 3 mps 760 mmHg 69%
23:00 +4°C° 0 mm 3 mps 760 mmHg 70%

10 May, Monday

Time Temperature Precipitation Wind Pressure Humidity
00:00 +4°C° 0 mm 3 mps 760 mmHg 71%
01:00 +4°C° 0 mm 3 mps 760 mmHg 72%
02:00 +4°C° 0 mm 2 mps 761 mmHg 73%
03:00 +4°C° 0 mm 2 mps 761 mmHg 73%
04:00 +4°C° 0 mm 2 mps 761 mmHg 73%
05:00 +4°C° 0 mm 2 mps 761 mmHg 73%
06:00 +5°C° 0 mm 3 mps 761 mmHg 67%
07:00 +8°C° 0 mm 3 mps 761 mmHg 61%
08:00 +11°C° 0 mm 4 mps 761 mmHg 54%
09:00 +12°C° 0 mm 4 mps 761 mmHg 50%
10:00 +13°C° 0 mm 4 mps 761 mmHg 46%
11:00 +14°C° 0 mm 5 mps 761 mmHg 41%
12:00 +14°C° 0 mm 5 mps 761 mmHg 41%
13:00 +15°C° 0 mm 6 mps 760 mmHg 41%
14:00 +15°C° 0 mm 6 mps 760 mmHg 42%
15:00 +15°C° 0 mm 6 mps 760 mmHg 46%
16:00 +15°C° 0 mm 6 mps 760 mmHg 49%
17:00 +14°C° 0 mm 5 mps 760 mmHg 53%
18:00 +13°C° 0 mm 5 mps 760 mmHg 60%
19:00 +11°C° 0 mm 4 mps 760 mmHg 67%
20:00 +9°C° 0 mm 3 mps 760 mmHg 74%
21:00 +7°C° 0 mm 4 mps 759 mmHg 75%
22:00 +7°C° 0 mm 4 mps 759 mmHg 77%
23:00 +6°C° 0 mm 4 mps 759 mmHg 78%

11 May, Tuesday

Time Temperature Precipitation Wind Pressure Humidity
00:00 +6°C° 0 mm 4 mps 759 mmHg 79%
01:00 +6°C° 0 mm 4 mps 759 mmHg 80%
02:00 +5°C° 0 mm 4 mps 759 mmHg 81%
03:00 +5°C° 0 mm 4 mps 759 mmHg 80%
04:00 +5°C° 0 mm 4 mps 759 mmHg 79%
05:00 +5°C° 0 mm 4 mps 759 mmHg 79%
06:00 +7°C° 0 mm 5 mps 759 mmHg 73%
07:00 +9°C° 0 mm 5 mps 758 mmHg 67%
08:00 +13°C° 0 mm 6 mps 758 mmHg 61%
09:00 +14°C° 0 mm 6 mps 758 mmHg 59%
10:00 +16°C° 0 mm 6 mps 758 mmHg 56%
11:00 +17°C° 0 mm 5 mps 758 mmHg 53%
12:00 +19°C° 0 mm 5 mps 757 mmHg 53%
13:00 +19°C° 0 mm 5 mps 757 mmHg 53%
14:00 +20°C° 0 mm 5 mps 757 mmHg 53%
15:00 +20°C° 0 mm 5 mps 757 mmHg 56%
16:00 +20°C° 0 mm 5 mps 757 mmHg 60%
17:00 +19°C° 0 mm 5 mps 757 mmHg 64%
18:00 +17°C° 0 mm 5 mps 757 mmHg 67%
19:00 +17°C° 0 mm 4 mps 757 mmHg 70%
20:00 +15°C° 0 mm 4 mps 757 mmHg 73%
21:00 +14°C° 0 mm 4 mps 757 mmHg 80%
22:00 +12°C° 0 mm 3 mps 757 mmHg 87%
23:00 +11°C° 0 mm 3 mps 757 mmHg 94%

12 May, Wednesday

Time Temperature Precipitation Wind Pressure Humidity
00:00 +10°C° 0 mm 3 mps 756 mmHg 94%
01:00 +9°C° 0 mm 2 mps 756 mmHg 94%
02:00 +8°C° 0 mm 2 mps 756 mmHg 93%
03:00 +8°C° 0 mm 2 mps 756 mmHg 92%
04:00 +8°C° 0 mm 2 mps 756 mmHg 90%
05:00 +8°C° 0 mm 2 mps 756 mmHg 88%
06:00 +10°C° 0 mm 2 mps 755 mmHg 84%
07:00 +12°C° 0 mm 3 mps 755 mmHg 80%
08:00 +13°C° 0 mm 3 mps 755 mmHg 76%
09:00 +14°C° 0.1 mm 4 mps 754 mmHg 76%
10:00 +14°C° 0.1 mm 4 mps 754 mmHg 76%
11:00 +14°C° 0.1 mm 5 mps 753 mmHg 76%
12:00 +13°C° 0 mm 5 mps 753 mmHg 78%
13:00 +13°C° 0 mm 5 mps 753 mmHg 80%
14:00 +12°C° 0 mm 5 mps 752 mmHg 81%
15:00 +12°C° 0 mm 5 mps 752 mmHg 82%
16:00 +10°C° 0 mm 5 mps 752 mmHg 83%
17:00 +11°C° 0 mm 4 mps 752 mmHg 84%
18:00 +10°C° 0 mm 4 mps 752 mmHg 86%
19:00 +9°C° 0 mm 3 mps 752 mmHg 89%
20:00 +8°C° 0 mm 2 mps 752 mmHg 91%
21:00 +8°C° 0 mm 3 mps 752 mmHg 91%
22:00 +8°C° 0 mm 3 mps 752 mmHg 92%
23:00 +6°C° 0 mm 4 mps 752 mmHg 93%
Show more

We Need Your Consent

Meteoprog and our Service Providers may store and access personal data such as cookies, device identifiers or other similar technologies on your device and process such data to personalise content and ads, as well as provide social media features and to analyse the traffic.

  • Store and/or access information on your device

    Cookies, device identifiers or other information can be stored or accessed on your device for the purposes indicated above.

  • Personalised ads and content, ad and content measurement, audience insights, and products development

    Ads and content can be personalised based on a profile. More data can be added to better personalise ads and content. Ad and content performance can be measured. Insights about the audience who saw the ads and content can be derived. Such data can be used to develop or improve user’s experience, systems and software.

By clicking ‘I Agree’ you will allow the use of indicated cookies, device identifiers, web beacons or other similar technologies. Your settings can be changed in the browser on your device.

For certain purposes, legitimate interests may be relied on, rather than consent. You can read more about this in our Privacy and Cookie Policy.